Regional Weather Roundup
Issued by NWS Wilmington, NC

Home | Current Version | Previous Version | Text Only | Print | Product List | Glossary On
Versions: 1 2 3 4 5 6 7 8 9 10 11 12 13 14 15 16 17 18 19 20 21 22 23 24 25 26 27 28 29 30 31 32 33 34 35 36 37 38 39 40 41 42 43 44 45 46 47 48 49 50
000
ASUS42 KILM 271113
RWRILM
RWRILM
REGIONAL HOURLY WEATHER ROUNDUP
NATIONAL WEATHER SERVICE WILMINGTON NC
700 AM EDT FRI MAR 27 2015

NOTE: "FAIR" INDICATES FEW OR NO CLOUDS BELOW 12,000 FEET WITH NO
SIGNIFICANT WEATHER AND/OR OBSTRUCTIONS TO VISIBILITY.

...............WFO WILMINGTON COUNTY WARNING AREA...............

......COASTAL NC AND SC COUNTIES......

CITY           SKY/WX    TMP DP  RH WIND       PRES   REMARKS
WILMINGTON     CLOUDY    63  62  97 SW3       29.68S
SOUTHPORT      CLOUDY    60  59  97 SW5       29.70R FOG
N MYRTLE BEACH FOG       62  60  93 SW6       29.69R VSB 3/4
MYRTLE BEACH   MOCLDY    64  61  88 SW5       29.71R

......INLAND NC AND SC COUNTIES.......

CITY           SKY/WX    TMP DP  RH WIND       PRES   REMARKS
LUMBERTON      CLOUDY    63  59  87 SW5       29.66R
ELIZABETHTOWN  CLOUDY    63  60  91 S3        29.66S
WHITEVILLE     CLOUDY    62  59  90 S5        29.67S
FLORENCE       CLOUDY    63  59  87 SW8       29.68R
DARLINGTON     CLOUDY    63  57  82 SW8       29.68R

....................REST OF NORTH CAROLINA......................

.........EASTERN NC.........

CITY           SKY/WX    TMP DP  RH WIND       PRES   REMARKS
CAPE HATTERAS  LGT RAIN  62  59  90 W10       29.68S
JACKSONVILLE   CLOUDY    61  57  88 S5        29.66F
MOREHEAD CITY  LGT RAIN  62  61  96 W6        29.68F
KENANSVILLE    CLOUDY    60  59  94 CALM      29.67S
NEW BERN       LGT RAIN  62  60  93 SW6       29.68F
ELIZABETH CITY HVY RAIN  50  48  93 N26G36    29.67R FOG

.........CENTRAL NC.........

CITY           SKY/WX    TMP DP  RH WIND       PRES   REMARKS
RALEIGH DURHAM CLOUDY    56  49  77 N12G20    29.70R
ROCKY MOUNT    CLOUDY    63  58  83 W6        29.65S
ROANOKE RAPIDS NOT AVBL
FAYETTEVILLE   CLOUDY    63  58  83 SW6       29.65R
HOFFMAN        NOT AVBL

.........WESTERN NC.........

CITY           SKY/WX    TMP DP  RH WIND       PRES   REMARKS
CHARLOTTE      CLOUDY    53  46  77 NE12      29.69R
GREENSBORO     LGT RAIN  47  41  80 N9G20     29.72R
HICKORY        NOT AVBL
BOONE          NOT AVBL
ASHEVILLE      NOT AVBL

.....................REST OF SOUTH CAROLINA.....................

.........EASTERN SC.........

CITY           SKY/WX    TMP DP  RH WIND       PRES   REMARKS
CHARLESTON     CLOUDY    64  63  94 SW6       29.72R
BEAUFORT MCAS  CLOUDY    65  61  87 W9        29.73R
HILTON HEAD    MOCLDY    64  63  94 W10G16    29.74R

.........CENTRAL SC.........

CITY           SKY/WX    TMP DP  RH WIND       PRES   REMARKS
COLUMBIA       CLOUDY    65  59  81 SW8       29.67S
ORANGEBURG     CLOUDY    64  58  80 SW9       29.70S
SUMTER SHAW    CLOUDY    64  58  83 SW10      29.66F

.........WESTERN SC.........

CITY           SKY/WX    TMP DP  RH WIND       PRES   REMARKS
GREENVILLE     NOT AVBL
ROCK HILL      CLOUDY    56  49  77 VRB7      29.69R
ANDERSON       CLOUDY    58  52  80 NW5       29.68R
CLEMSON        NOT AVBL
GREENWOOD      CLOUDY    61  59  93 SW7       29.69R


...................COASTAL AND OFFSHORE REPORTS..................

................LOCAL PIERS AND NC RESERVE................


STATION/POSITION TIME  SKY/WX   TEMP    WIND        PRES    VSBY
                                AIR SEA DIR/SP/G
                 (UTC)          (F)     (DEG/KT/KT) (MB)    (MI)
JOHNY MRCER PIER 1000            63 59  200/  5/  5 1004.4F
NC RESRV MASNBRO NOT AVBL
OCEAN CREST PIER 1102            60 58  240/  5/  6 1004.8R
SPRINGMAID  PIER 1000            59 56  210/  2/  2 1004.8F


................COASTAL AND OFFSHORE BUOYS................


STATION/POSITION TIME  SKY/WX   TEMP    WIND        PRES    VSBY
                                AIR SEA DIR/SP/G
                 (UTC)          (F)     (DEG/KT/KT) (MB)    (MI)
DIMNDSHOAL 41025 NOT AVBL
CAPE LOOKOUT     1100            59     290/  7/  8 1004.7F
ONSLOW BAY 41036 NOT AVBL
5 WRITEBCH 41038 1000            60 57  210/  4/  6 1005.1F
MASONBORO  41110 1019               57                N/A
WVE H/P(F/S)=  4/ 8 WND WVE H/P(F/S)=  3/ 8

WILM HARBR 41108 1011               60                N/A
WVE H/P(F/S)=  4/ 8 WND WVE H/P(F/S)=  3/ 8

27WRITEBCH 41037 1000            60 64  280/ 10/ 14 1007.3R
FRYING PAN 41013 1050            66 65  230/ 12/ 14 1005.4F
WVE H/P(F/S)=  5/ 8 WND WVE H/P(F/S)=  3/ 5 SWL H/P/D(F/S/D)=  5/110/ 8

SUNST NRSH 41024 1000            58     180/  6/  8   N/A
CAPRS NRSH 41029 1000            60     230/ 12/ 14   N/A
EDISTO     41004 1050            67 70  250/ 19/ 21 1005.3R
WVE H/P(F/S)=  7/ 8 WND WVE H/P(F/S)=  7/ 8 SWL H/P/D(F/S/D)=  3/12



..........OFFSHORE BUOYS BEYOND 100 NM OFFSHORE...........
.....IN A TRIANGLE---HAT TO BERMUDA TO BAHAMAS TO HAT.....


STATION/POSITION TIME  SKY/WX   TEMP    WIND        PRES    VSBY
                                AIR SEA DIR/SP/G
                 (UTC)          (F)     (DEG/KT/KT) (MB)    (MI)
150E HAT   41001 NOT AVBL
W BERMUDA  41048 1050            70 69  170/ 19/ 23 1015.8F
WVE H/P(F/S)=  7/ 7 WND WVE H/P(F/S)=  7/ 7 SWL H/P/D(F/S/D)=  2/190/11

ATLANTIC S 41049 1050            72 74  130/ 19/ 23 1023.1R
WVE H/P(F/S)=  6/ 7 WND WVE H/P(F/S)=  5/ 7 SWL H/P/D(F/S/D)=  2/ 40/ 8

E BAHAMAS  41046 1050            77 78  130/ 16/ 17 1018.7R
WVE H/P(F/S)=  8/ 8 WND WVE H/P(F/S)=  5/ 6 SWL H/P/D(F/S/D)=  7/ 60/ 8

NE BAHAMAS 41047 1050            75 75  180/ 16/ 19 1017.0R
WVE H/P(F/S)=  8/ 8 WND WVE H/P(F/S)=  7/ 7 SWL H/P/D(F/S/D)=  5/100/ 8

120E CANVRL41010 1020            77 76  240/ 17/ 21 1010.8F

END


USA.gov is the U.S. government's official web portal to all federal, state and local government web resources and services.